When you browse on this site, cookies collect data to enhance your experience and personalize the content and advertising you see.
Visit our Privacy Policy to learn more. By continuing to use the site, you agree to this use of cookies and data.
  • In Schweiz
  • Länderverzeichnis
  • Für 7 Tage
  • Wassertemperatur
  • Satellitenkarten
  • Wetterkarte
  • Widgets
  • user-avatar
    Anmelden

    Stündliche Wetter Annaba

    Heute, 23 Mai, Donnerstag

    Zeit Temperatur Niederschläge Wind Luftdruck Luftfeuchtigkeit
    00:00 +16°C° 0 mm 1 m/S 762 mmHg 68%
    01:00 +16°C° 0 mm 1 m/S 762 mmHg 69%
    02:00 +15°C° 0 mm 1 m/S 762 mmHg 70%
    03:00 +15°C° 0 mm 1 m/S 762 mmHg 71%
    04:00 +15°C° 0 mm 1 m/S 762 mmHg 72%
    05:00 +16°C° 0 mm 1 m/S 762 mmHg 68%
    06:00 +18°C° 0 mm 1 m/S 762 mmHg 64%
    07:00 +19°C° 0 mm 1 m/S 762 mmHg 60%
    08:00 +21°C° 0 mm 1 m/S 762 mmHg 52%
    09:00 +24°C° 0 mm 1 m/S 763 mmHg 44%
    10:00 +26°C° 0 mm 1 m/S 763 mmHg 36%
    11:00 +27°C° 0 mm 2 m/S 763 mmHg 34%
    12:00 +27°C° 0 mm 3 m/S 762 mmHg 32%
    13:00 +28°C° 0 mm 4 m/S 762 mmHg 29%
    14:00 +28°C° 0 mm 4 m/S 762 mmHg 31%
    15:00 +27°C° 0 mm 4 m/S 761 mmHg 33%
    16:00 +27°C° 0 mm 4 m/S 761 mmHg 34%
    17:00 +25°C° 0 mm 4 m/S 761 mmHg 40%
    18:00 +24°C° 0 mm 3 m/S 761 mmHg 45%
    19:00 +21°C° 0 mm 3 m/S 761 mmHg 50%
    20:00 +20°C° 0 mm 2 m/S 761 mmHg 53%
    21:00 +19°C° 0 mm 2 m/S 761 mmHg 55%
    22:00 +18°C° 0 mm 1 m/S 762 mmHg 58%
    23:00 +18°C° 0 mm 1 m/S 761 mmHg 58%

    Morgen, 24 Mai, Freitag

    Zeit Temperatur Niederschläge Wind Luftdruck Luftfeuchtigkeit
    00:00 +18°C° 0 mm 1 m/S 761 mmHg 59%
    01:00 +18°C° 0 mm 1 m/S 761 mmHg 59%
    02:00 +16°C° 0 mm 1 m/S 760 mmHg 60%
    03:00 +16°C° 0 mm 1 m/S 760 mmHg 60%
    04:00 +16°C° 0 mm 1 m/S 759 mmHg 61%
    05:00 +18°C° 0 mm 1 m/S 759 mmHg 59%
    06:00 +19°C° 0 mm 1 m/S 759 mmHg 57%
    07:00 +21°C° 0 mm 1 m/S 759 mmHg 54%
    08:00 +23°C° 0.1 mm 1 m/S 759 mmHg 51%
    09:00 +25°C° 0.1 mm 1 m/S 758 mmHg 48%
    10:00 +27°C° 0.1 mm 2 m/S 758 mmHg 44%
    11:00 +28°C° 0.3 mm 2 m/S 758 mmHg 44%
    12:00 +29°C° 0.3 mm 3 m/S 757 mmHg 45%
    13:00 +29°C° 0.3 mm 4 m/S 757 mmHg 45%
    14:00 +28°C° 1.3 mm 4 m/S 756 mmHg 51%
    15:00 +27°C° 1.3 mm 3 m/S 756 mmHg 57%
    16:00 +26°C° 1.3 mm 3 m/S 755 mmHg 63%
    17:00 +25°C° 0.7 mm 3 m/S 755 mmHg 68%
    18:00 +24°C° 0.7 mm 2 m/S 755 mmHg 72%
    19:00 +23°C° 0.7 mm 2 m/S 755 mmHg 77%
    20:00 +21°C° 1.1 mm 2 m/S 756 mmHg 81%
    21:00 +20°C° 1.1 mm 2 m/S 756 mmHg 85%
    22:00 +20°C° 1.1 mm 2 m/S 756 mmHg 89%
    23:00 +20°C° 0.2 mm 2 m/S 756 mmHg 88%

    übermorgen, 25 Mai, Samstag

    Zeit Temperatur Niederschläge Wind Luftdruck Luftfeuchtigkeit
    00:00 +21°C° 0.2 mm 1 m/S 756 mmHg 88%
    01:00 +21°C° 0.2 mm 1 m/S 755 mmHg 87%
    02:00 +20°C° 0.4 mm 1 m/S 755 mmHg 88%
    03:00 +20°C° 0.4 mm 1 m/S 754 mmHg 90%
    04:00 +20°C° 0.4 mm 1 m/S 754 mmHg 91%
    05:00 +19°C° 1 mm 2 m/S 754 mmHg 91%
    06:00 +19°C° 1 mm 2 m/S 754 mmHg 91%
    07:00 +19°C° 1 mm 2 m/S 754 mmHg 91%
    08:00 +20°C° 0.5 mm 2 m/S 754 mmHg 89%
    09:00 +20°C° 0.5 mm 2 m/S 754 mmHg 87%
    10:00 +21°C° 0.5 mm 3 m/S 755 mmHg 85%
    11:00 +21°C° 0.1 mm 3 m/S 755 mmHg 83%
    12:00 +21°C° 0.1 mm 4 m/S 755 mmHg 80%
    13:00 +22°C° 0.1 mm 5 m/S 755 mmHg 77%
    14:00 +22°C° 0.1 mm 4 m/S 755 mmHg 78%
    15:00 +21°C° 0.1 mm 4 m/S 755 mmHg 79%
    16:00 +21°C° 0.1 mm 4 m/S 754 mmHg 80%
    17:00 +20°C° 0.6 mm 4 m/S 754 mmHg 84%
    18:00 +19°C° 0.6 mm 4 m/S 755 mmHg 88%
    19:00 +18°C° 0.6 mm 4 m/S 755 mmHg 92%
    20:00 +17°C° 1.4 mm 5 m/S 755 mmHg 92%
    21:00 +17°C° 1.4 mm 5 m/S 756 mmHg 92%
    22:00 +17°C° 1.4 mm 5 m/S 756 mmHg 92%
    23:00 +17°C° 0.3 mm 5 m/S 756 mmHg 91%

    26 Mai, Sonntag

    Zeit Temperatur Niederschläge Wind Luftdruck Luftfeuchtigkeit
    00:00 +16°C° 0.3 mm 5 m/S 756 mmHg 91%
    01:00 +16°C° 0.3 mm 5 m/S 755 mmHg 91%
    02:00 +16°C° 0.2 mm 5 m/S 755 mmHg 91%
    03:00 +16°C° 0.2 mm 5 m/S 755 mmHg 91%
    04:00 +16°C° 0.2 mm 5 m/S 754 mmHg 91%
    05:00 +16°C° 0.4 mm 5 m/S 754 mmHg 90%
    06:00 +16°C° 0.4 mm 5 m/S 755 mmHg 89%
    07:00 +16°C° 0.4 mm 5 m/S 755 mmHg 89%
    08:00 +16°C° 2 mm 5 m/S 755 mmHg 89%
    09:00 +16°C° 2 mm 6 m/S 755 mmHg 89%
    10:00 +16°C° 2 mm 6 m/S 755 mmHg 89%
    11:00 +17°C° 3 mm 5 m/S 755 mmHg 89%
    12:00 +17°C° 3 mm 5 m/S 755 mmHg 89%
    13:00 +17°C° 3 mm 5 m/S 755 mmHg 88%
    14:00 +17°C° 1.4 mm 5 m/S 755 mmHg 86%
    15:00 +19°C° 1.4 mm 5 m/S 755 mmHg 84%
    16:00 +19°C° 1.4 mm 5 m/S 755 mmHg 82%
    17:00 +19°C° 0.2 mm 5 m/S 756 mmHg 83%
    18:00 +19°C° 0.2 mm 5 m/S 756 mmHg 84%
    19:00 +17°C° 0.2 mm 5 m/S 756 mmHg 85%
    20:00 +16°C° 0.3 mm 5 m/S 756 mmHg 87%
    21:00 +16°C° 0.3 mm 5 m/S 756 mmHg 89%
    22:00 +15°C° 0.3 mm 5 m/S 757 mmHg 91%
    23:00 +15°C° 0.8 mm 5 m/S 757 mmHg 91%

    27 Mai, Montag

    Zeit Temperatur Niederschläge Wind Luftdruck Luftfeuchtigkeit
    00:00 +15°C° 0.8 mm 5 m/S 756 mmHg 90%
    01:00 +15°C° 0.8 mm 5 m/S 756 mmHg 90%
    02:00 +15°C° 0.8 mm 6 m/S 756 mmHg 89%
    03:00 +15°C° 0.8 mm 6 m/S 756 mmHg 89%
    04:00 +15°C° 0.8 mm 6 m/S 756 mmHg 88%
    05:00 +16°C° 0.4 mm 6 m/S 756 mmHg 88%
    06:00 +16°C° 0.4 mm 6 m/S 756 mmHg 89%
    07:00 +16°C° 0.4 mm 6 m/S 756 mmHg 89%
    08:00 +17°C° 0.9 mm 7 m/S 756 mmHg 87%
    09:00 +17°C° 0.9 mm 7 m/S 757 mmHg 86%
    10:00 +18°C° 0.9 mm 8 m/S 757 mmHg 84%
    11:00 +20°C° 0.3 mm 8 m/S 757 mmHg 77%
    12:00 +22°C° 0.3 mm 8 m/S 757 mmHg 70%
    13:00 +23°C° 0.3 mm 9 m/S 757 mmHg 63%
    14:00 +23°C° 0 mm 9 m/S 757 mmHg 63%
    15:00 +23°C° 0 mm 9 m/S 757 mmHg 62%
    16:00 +23°C° 0 mm 8 m/S 757 mmHg 61%
    17:00 +22°C° 0 mm 7 m/S 757 mmHg 66%
    18:00 +21°C° 0 mm 6 m/S 758 mmHg 71%
    19:00 +20°C° 0 mm 5 m/S 758 mmHg 76%
    20:00 +19°C° 0 mm 5 m/S 758 mmHg 80%
    21:00 +18°C° 0 mm 4 m/S 759 mmHg 84%
    22:00 +17°C° 0 mm 3 m/S 759 mmHg 89%
    23:00 +17°C° 0 mm 3 m/S 759 mmHg 87%

    28 Mai, Dienstag

    Zeit Temperatur Niederschläge Wind Luftdruck Luftfeuchtigkeit
    00:00 +17°C° 0 mm 3 m/S 759 mmHg 86%
    01:00 +16°C° 0 mm 3 m/S 759 mmHg 85%
    02:00 +16°C° 0 mm 2 m/S 759 mmHg 82%
    03:00 +16°C° 0 mm 2 m/S 759 mmHg 80%
    04:00 +16°C° 0 mm 2 m/S 758 mmHg 78%
    05:00 +17°C° 0 mm 2 m/S 759 mmHg 74%
    06:00 +18°C° 0 mm 2 m/S 759 mmHg 71%
    07:00 +19°C° 0 mm 2 m/S 759 mmHg 67%
    08:00 +21°C° 0 mm 2 m/S 759 mmHg 60%
    09:00 +24°C° 0 mm 2 m/S 759 mmHg 53%
    10:00 +26°C° 0 mm 1 m/S 759 mmHg 46%
    11:00 +27°C° 0 mm 2 m/S 758 mmHg 44%
    12:00 +28°C° 0 mm 2 m/S 758 mmHg 41%
    13:00 +30°C° 0 mm 2 m/S 758 mmHg 39%
    14:00 +29°C° 0 mm 3 m/S 758 mmHg 41%
    15:00 +29°C° 0 mm 4 m/S 757 mmHg 44%
    16:00 +29°C° 0 mm 5 m/S 757 mmHg 46%
    17:00 +27°C° 0 mm 4 m/S 757 mmHg 52%
    18:00 +25°C° 0 mm 4 m/S 757 mmHg 58%
    19:00 +24°C° 0 mm 3 m/S 757 mmHg 64%
    20:00 +21°C° 0 mm 3 m/S 758 mmHg 68%
    21:00 +20°C° 0 mm 2 m/S 758 mmHg 72%
    22:00 +19°C° 0 mm 2 m/S 759 mmHg 76%
    23:00 +19°C° 0 mm 2 m/S 759 mmHg 78%
    Mehr zeigen